FW0639 Weather Reports


Display with metric or nautical units.
time (UTC)temp
F
wind
direction
speed
MPH
gust
MPH
rain 1hr
in
rain 24hr
in
rain mn
in
humidity
%
barometer
mb
20260506040536 32 276 0.0 0.0 0.00 0.00 0.00 60 1021.3
20260506035601 33 275 0.0 0.0 0.00 0.00 0.00 58 1021.2
20260506034529 34 269 0.0 0.0 0.00 0.00 0.00 54 1021.2
20260506033515 35 215 0.0 0.0 0.00 0.00 0.00 53 1021.2
20260506032508 36 215 0.0 0.0 0.00 0.00 0.00 51 1021.0
20260506030357 38 97 0.0 0.0 0.00 0.00 0.00 46 1020.7
20260506025354 39 90 0.0 0.0 0.00 0.00 0.00 45 1020.5
20260506024413 40 71 0.0 0.0 0.00 0.00 0.00 43 1020.4
20260506023432 41 65 0.0 3.0 0.00 0.00 0.00 42 1020.2
20260506022422 42 55 1.0 6.0 0.00 0.00 0.00 42 1020.1
20260506021406 42 50 1.0 6.0 0.00 0.00 0.00 41 1020.0
20260506015311 43 5 1.0 7.0 0.00 0.00 0.00 39 1019.6
20260506014256 44 347 2.0 8.0 0.00 0.00 0.00 38 1019.7
20260506013233 44 344 2.0 9.0 0.00 0.00 0.00 38 1019.6
20260506012245 44 347 1.0 9.0 0.00 0.00 0.00 38 1019.6
20260506011250 44 345 2.0 8.0 0.00 0.00 0.00 37 1019.6
20260506010218 45 351 2.0 11.0 0.00 0.00 0.00 38 1019.5
20260506005209 45 346 3.0 11.0 0.00 0.00 0.00 36 1019.5
20260506004234 45 351 2.0 10.0 0.00 0.00 0.00 39 1019.4
20260506003237 44 10 2.0 10.0 0.00 0.00 0.00 38 1019.4
20260506002243 45 347 3.0 10.0 0.00 0.00 0.00 37 1019.4
20260506001233 46 341 2.0 12.0 0.00 0.00 0.00 37 1019.4
20260505235107 45 353 3.0 12.0 0.00 0.00 0.00 40 1019.2
20260505234121 45 346 3.0 10.0 0.00 0.00 0.00 41 1019.2
20260505233131 45 332 3.0 10.0 0.00 0.00 0.00 38 1019.1
20260505232151 45 345 2.0 10.0 0.00 0.00 0.00 39 1019.0
20260505231155 45 351 3.0 10.0 0.00 0.00 0.00 39 1019.1
20260505230152 46 339 2.0 7.0 0.00 0.00 0.00 40 1019.0
20260505225133 45 346 3.0 9.0 0.00 0.00 0.00 40 1019.1
20260505224142 47 340 3.0 11.0 0.00 0.00 0.00 38 1019.0
20260505222000 45 323 3.0 12.0 0.00 0.00 0.00 41 1019.1
20260505220928 46 345 3.0 13.0 0.00 0.00 0.00 40 1019.1
20260505215946 46 341 3.0 13.0 0.00 0.00 0.00 42 1019.0
20260505215010 44 353 4.0 11.0 0.00 0.00 0.00 42 1019.1
20260505213944 46 344 3.0 9.0 0.00 0.00 0.00 41 1019.2
20260505212931 46 344 3.0 10.0 0.00 0.00 0.00 41 1019.1
20260505211903 45 348 3.0 10.0 0.00 0.00 0.00 42 1019.2
20260505210926 46 347 3.0 10.0 0.00 0.00 0.00 42 1019.2
20260505205853 45 345 4.0 11.0 0.00 0.00 0.00 42 1019.1
20260505202558 45 332 4.0 11.0 0.00 0.00 0.00 40 1019.4
20260505201623 45 351 3.0 13.0 0.00 0.00 0.00 45 1019.4
20260505200609 45 332 4.0 13.0 0.00 0.00 0.00 45 1019.5
20260505195600 44 351 3.0 9.0 0.00 0.00 0.00 44 1019.4
20260505194545 44 352 3.0 11.0 0.00 0.00 0.00 44 1019.4
20260505193513 43 351 4.0 11.0 0.00 0.00 0.00 46 1019.5
20260505192504 42 357 4.0 11.0 0.00 0.00 0.00 51 1019.6
20260505191454 43 352 3.0 9.0 0.00 0.00 0.00 45 1019.6
20260505190515 43 350 3.0 9.0 0.00 0.00 0.00 48 1019.6
20260505185515 42 332 3.0 10.0 0.00 0.00 0.00 50 1019.6
20260505184510 41 13 4.0 10.0 0.00 0.00 0.00 49 1019.6
20260505182336 41 7 4.0 10.0 0.00 0.00 0.00 49 1019.6
20260505181321 43 351 3.0 4.0 0.00 0.00 0.00 48 1019.5
20260505175617 41 304 2.0 9.0 0.00 0.00 0.00 51 1019.5
20260505174617 41 223 3.0 9.0 0.00 0.00 0.00 52 1019.6
20260505173549 41 291 2.0 9.0 0.00 0.00 0.00 51 1019.5
20260505172526 41 247 3.0 11.0 0.00 0.00 0.00 51 1019.5
20260505171536 41 256 3.0 11.0 0.00 0.00 0.00 53 1019.3
20260505163206 41 328 3.0 11.0 0.00 0.00 0.00 53 1019.4
20260505162209 41 345 4.0 11.0 0.00 0.00 0.00 52 1019.3
20260505161210 41 340 3.0 9.0 0.00 0.00 0.00 55 1019.3
20260505160233 40 1 3.0 9.0 0.00 0.00 0.00 54 1019.3
20260505153247 39 43 1.0 10.0 0.00 0.00 0.00 56 1019.5
20260505152306 38 32 2.0 9.0 0.00 0.00 0.00 56 1019.6
20260505151232 38 37 2.0 9.0 0.00 0.00 0.00 58 1019.5
20260505150222 38 43 2.0 8.0 0.00 0.00 0.00 59 1019.6
20260505140232 37 220 0.0 4.0 0.00 0.00 0.00 66 1019.3
20260505130114 35 210 0.0 4.0 0.00 0.00 0.00 80 1018.5
20260505122918 33 218 0.0 0.0 0.00 0.00 0.00 79 1018.3
20260505121908 34 218 0.0 0.0 0.00 0.00 0.00 79 1018.2
20260505120838 34 219 0.0 0.0 0.00 0.00 0.00 78 1018.2
20260505115900 34 219 0.0 0.0 0.00 0.00 0.00 78 1018.1
20260505114844 34 219 0.0 0.0 0.00 0.00 0.00 77 1018.1
20260505113850 34 219 0.0 0.0 0.00 0.00 0.00 77 1018.0
20260505112817 34 219 0.0 3.0 0.00 0.00 0.00 75 1018.1
20260505111748 34 219 1.0 6.0 0.00 0.00 0.00 74 1018.0
20260505110807 34 219 1.0 6.0 0.00 0.00 0.00 74 1017.9
20260505100744 35 220 1.0 8.0 0.00 0.00 0.00 65 1017.9
20260505095723 35 221 1.0 8.0 0.00 0.00 0.00 65 1017.7
20260505091357 33 239 0.0 2.0 0.00 0.00 0.00 77 1017.7
20260505090416 33 239 0.0 2.0 0.00 0.00 0.00 76 1017.8
20260505084309 33 239 0.0 0.0 0.00 0.00 0.00 76 1018.0
20260505083328 33 239 0.0 0.0 0.00 0.00 0.00 76 1018.0
20260505082323 32 239 0.0 0.0 0.00 0.00 0.00 76 1018.1
20260505081336 32 239 0.0 0.0 0.00 0.00 0.00 76 1017.8
20260505075217 32 239 0.0 0.0 0.00 0.00 0.00 76 1017.8
20260505074228 32 239 0.0 0.0 0.00 0.00 0.00 75 1017.8
20260505073207 32 239 0.0 0.0 0.00 0.00 0.00 74 1017.8
20260505071108 33 239 0.0 2.0 0.00 0.00 0.00 73 1017.8
20260505070132 33 239 0.0 1.0 0.00 0.00 0.00 72 1017.8
20260505065136 33 239 0.0 0.0 0.00 0.00 0.00 72 1017.8
20260505064118 33 239 0.0 3.0 0.00 0.00 0.00 71 1017.5
20260505061932 33 239 0.0 0.0 0.00 0.00 0.00 71 1017.3
20260505060907 32 239 0.0 0.0 0.00 0.00 0.00 72 1017.3
20260505054801 32 239 0.0 0.0 0.00 0.00 0.00 69 1017.1
20260505053801 33 239 0.0 0.0 0.00 0.00 0.00 68 1017.0
20260505052818 33 239 0.0 0.0 0.00 0.00 0.00 66 1016.9
20260505051826 34 240 0.0 0.0 0.00 0.00 0.00 65 1016.8
20260505050850 34 240 0.0 0.0 0.00 0.00 0.00 67 1016.8